User: anonymous   Login
Location: Unspecified
(0.0000°N, 0.0000°E)
Time: 16:08:06
(UTC+00:00)
Language:

Max Valier Satellite - Orbit

View from above orbital plane
View from above orbital plane
View from above satellite
View from above satellite

Ground track
Ground track

The orbit data is extracted from the following two-line orbital elements,

1 42778U 17036P   18112.46707667  .00001359  00000-0  63985-4 0  9994
2 42778  97.4089 173.0922 0010988 263.6606  96.3379 15.21183098 46034
Epoch (UTC): 22 April 2018 11:12:35
Eccentricity: 0.0010988
inclination: 97.4089°
perigee height: 495 km
apogee height: 510 km
right ascension of ascending node: 173.0922°
argument of perigee: 263.6606°
revolutions per day: 15.21183098
mean anomaly at epoch: 96.3379°
orbit number at epoch: 4603

The dashed part of the orbit path shows where the satellite is in the earth's shadow,  

DLR